Location: St. Louis
(38.6270°N, 90.1994°W)
Time: 22:05:29
(UTC-05:00)

deb Kosmos-468 - Pass Details

Date: 21 August 2022
Orbit: 584 x 585 km, 74.0° (Epoch: 30 September)

Event Time Altitude Azimuth Distance (km) Brightness Sun altitude
Rises 22:40:08 0° 360° (N) 2,817 ? -29.4°
Reaches altitude 10° 22:43:12 10° 23° (NNE) 1,912 ? -29.8°
Enters shadow 22:43:34 11° 28° (NNE) 1,836 ? -29.9°
